Regional Weather Roundup
Issued by NWS Sioux Falls, SD

Home | Current Version | Previous Version | Graphics & Text | Print | Product List | Glossary Off
Versions: 1 2 3 4 5 6 7 8 9 10 11 12 13 14 15 16 17 18 19 20 21 22 23 24 25 26 27 28 29 30 31 32 33 34 35 36 37 38 39 40 41 42 43 44 45 46 47 48 49 50

000
ASUS43 KFSD 041010
RWRFSD

WEATHER ROUNDUP FOR SE SOUTH DAKOTA/SW MINNESOTA/NW IOWA
NATIONAL WEATHER SERVICE SIOUX FALLS SD
500 AM CDT WED MAY 04 2016

NOTE: "FAIR" INDICATES FEW OR NO CLOUDS BELOW 12,000 FEET WITH NO
SIGNIFICANT WEATHER AND OR OBSTRUCTIONS TO VISIBILITY.


SDZ038>040-050-052>070-041100-
SOUTHEAST SOUTH DAKOTA

CITY           SKY/WX    TMP DP  RH WIND       PRES   REMARKS
BROOKINGS      CLEAR     41  32  70 N3        30.00
CHAMBERLAIN    CLEAR     43  37  79 CALM      30.09R
HURON          CLEAR     37  32  82 NW9       30.05R
MADISON        FAIR      43  34  70 N10       30.01R
MITCHELL       CLEAR     42  36  79 NW9       30.05R
SIOUX FALLS    CLEAR     44  33  65 N9        30.00R
WINNER         FAIR      43  37  79 W6        30.10R
YANKTON        CLEAR     45  34  65 NW9       30.01R
$$

MNZ071-072-080-081-089-090-097-098-041100-
SOUTHWEST MINNESOTA

CITY           SKY/WX    TMP DP  RH WIND       PRES   REMARKS
FAIRMONT       CLEAR     46  30  53 N12       29.92R
JACKSON        PTCLDY    43  32  65 N6        29.95S
LUVERNE        CLEAR     45  32  61 N8        29.98S
MARSHALL       CLEAR     39  32  76 NW9       29.99R
MONTEVIDEO     CLEAR     43  34  70 N8        30.01S
PIPESTONE      CLEAR     43  30  61 N5        29.98S
REDWOOD FALLS  CLEAR     46  32  58 N8        29.97R
TRACY          CLEAR     44  33  66 NW9       29.99R
WINDOM         CLEAR     43  34  70 N12       29.96R
WORTHINGTON    CLEAR     43  34  70 N14       29.97R
$$

IAZ001>003-012>014-020>022-031-032-NEZ013-014-SDZ071-041100-
NORTHWEST IOWA

CITY           SKY/WX    TMP DP  RH WIND       PRES   REMARKS
CHEROKEE       CLEAR     42  34  73 N3        29.94S
DENISON        CLEAR     48  34  57 N10       29.90R
ESTHERVILLE    CLEAR     43  34  70 N13       29.93R
LE MARS        CLEAR     46  34  61 N6        29.97R
ORANGE CITY    CLEAR     45  34  65 N12G17    29.96R
SHELDON        CLEAR     41  34  75 N10       29.95R
SIOUX CITY     CLEAR     44  34  67 NW9       29.96R
SPENCER        CLEAR     46  33  60 N14       29.94R
STORM LAKE     CLEAR     46  34  61 N15       29.93R
$$

ABBREVIATIONS USED IN REMARKS
   TC - TEMPERATURE IN CELSIUS
  WCI - WIND CHILL INDEX
   HX - HEAT INDEX
  VSB - VISIBILITY





USA.gov is the U.S. government's official web portal to all federal, state and local government web resources and services.